Weather History for CYYZ - October, 2011

Change the Weather History Date:

Monday, October 31, 2011

  Actual Average Record
Temperature  
Mean Temperature 46 °F -  
Max Temperature 51 °F 45 °F 68 °F (2003)
Min Temperature 40 °F 31 °F 28 °F (2002)
Degree Days  
Heating Degree Days 20    
Moisture  
Dew Point 39 °F    
Average Humidity 79    
Maximum Humidity 93    
Minimum Humidity 51    
Precipitation  
Precipitation 0.00 in 0.09 in - ()
Sea Level Pressure  
Sea Level Pressure 30.20 in    
Wind  
Wind Speed 4 mph ()    
Max Wind Speed 12 mph    
Max Gust Speed -    
Visibility 14.6 miles    
Events      
Averages and records for this station are not official NWS values.
T = Trace of Precipitation, MM = Missing Value Source: Averaged Metar Reports

Daily Weather History Graph

Daily Weather History Graph

Search for Another Location

Airport or City:

Trip Planner

Search our weather history database for the weather conditions in past years. The results will help you decide how hot, cold, wet, or windy it might be!

Date:

Astronomy

Oct. 31, 2011 Rise Set
Actual Time 7:52 AM EDT 6:10 PM EDT
Civil Twilight 7:22 AM EDT 6:40 PM EDT
Nautical Twilight 6:49 AM EDT 7:14 PM EDT
Astronomical Twilight 6:15 AM EDT 7:47 PM EDT
Moon 1:02 PM EDT (10/31) 10:41 PM EDT (10/31)
Length of Visible Light 11h 17m
Length of Day
10h 18m
Waxing Crescent, 29% of the Moon is Illuminated
Oct 31
Waxing Crescent
Nov 2
First Quarter
Nov 10
Full
Nov 18
Last Quarter
Nov 25
New

Hourly Weather History & Observations

Time (EDT) Temp. Windchill Dew Point Humidity Pressure Visibility Wind Dir Wind Speed Gust Speed Precip Events Conditions
12:00 AM 42.8 °F 40.1 °F 37.4 °F 81% 30.24 in 15.0 mi SSW 4.6 mph - N/A   Mostly Cloudy
1:00 AM 41.0 °F - 37.4 °F 87% 30.24 in 15.0 mi Calm Calm - N/A   Scattered Clouds
2:00 AM 41 °F - 37 °F 81% 30.24 in 15 mi South 2.3 mph - -   Partly Cloudy
2:00 AM 41.0 °F - 37.4 °F 87% 30.24 in 15.0 mi SSE 2.3 mph - N/A   Scattered Clouds
3:00 AM 41.0 °F - 39.2 °F 93% 30.24 in 15.0 mi Calm Calm - N/A   Overcast
4:00 AM 42.8 °F - 39.2 °F 87% 30.23 in 15.0 mi SE 2.3 mph - N/A   Overcast
5:00 AM 41.0 °F 39.0 °F 39.2 °F 93% 30.22 in 15.0 mi ESE 3.5 mph - N/A   Overcast
6:00 AM 42.8 °F 41.1 °F 41.0 °F 93% 30.22 in 15.0 mi South 3.5 mph - N/A   Mostly Cloudy
7:00 AM 42.8 °F 40.1 °F 41.0 °F 93% 30.21 in 15.0 mi ESE 4.6 mph - N/A   Mostly Cloudy
8:00 AM 42 °F - 40 °F 89% 30.21 in 12 mi SE 4.6 mph - -   Scattered Clouds
8:00 AM 42.8 °F 40.1 °F 39.2 °F 87% 30.21 in 12.0 mi SE 4.6 mph - N/A   Mostly Cloudy
9:00 AM 42.8 °F 40.1 °F 41.0 °F 93% 30.21 in 12.0 mi SE 4.6 mph - N/A   Mostly Cloudy
10:00 AM 44.6 °F 42.2 °F 41.0 °F 87% 30.21 in 12.0 mi SSE 4.6 mph - N/A   Mostly Cloudy
11:00 AM 48.2 °F - 41.0 °F 76% 30.20 in 15.0 mi SE 4.6 mph - N/A   Overcast
12:00 PM 48.2 °F - 41.0 °F 76% 30.19 in 15.0 mi SSE 6.9 mph - N/A   Overcast
1:00 PM 50.0 °F - 39.2 °F 66% 30.17 in 15.0 mi ESE 8.1 mph - N/A   Overcast
2:00 PM 50 °F - 37 °F 51% 30.14 in 15 mi ESE 5.8 mph - -   Overcast
2:00 PM 50.0 °F - 37.4 °F 62% 30.14 in 15.0 mi East 6.9 mph - N/A   Overcast
3:00 PM 48.2 °F - 35.6 °F 62% 30.15 in 15.0 mi SE 11.5 mph - N/A   Mostly Cloudy
4:00 PM 48.2 °F - 35.6 °F 62% 30.15 in 15.0 mi SE 8.1 mph - N/A   Overcast
5:00 PM 48.2 °F - 37.4 °F 66% 30.16 in 15.0 mi ESE 6.9 mph - N/A   Overcast
6:00 PM 46.4 °F 43.5 °F 37.4 °F 71% 30.17 in 15.0 mi East 5.8 mph - N/A   Overcast
7:00 PM 46.4 °F 43.5 °F 37.4 °F 71% 30.18 in 15.0 mi East 5.8 mph - N/A   Overcast
8:00 PM 45 °F - 39 °F 72% 30.20 in 15 mi ESE 5.8 mph - -   Overcast
8:00 PM 44.6 °F 41.4 °F 39.2 °F 81% 30.20 in 15.0 mi ESE 5.8 mph - N/A   Overcast
9:00 PM 44.6 °F - 39.2 °F 81% 30.20 in 15.0 mi South 2.3 mph - N/A   Overcast
10:00 PM 46.4 °F 44.3 °F 39.2 °F 76% 30.21 in 15.0 mi SE 4.6 mph - N/A   Mostly Cloudy
11:00 PM 46.4 °F 44.3 °F 41.0 °F 81% 30.21 in 15.0 mi South 4.6 mph - N/A   Overcast